Regional Weather Roundup
Issued by NWS

Home | Current Version | Previous Version | Text Only | Print | Product List | Glossary Off
Versions: 1 2 3 4 5 6 7 8 9 10 11 12 13 14 15 16 17 18 19 20 21 22 23 24 25 26 27

000
ASUS45 KTFX 172210
RWRMT
MONTANA REGIONAL WEATHER ROUNDUP
NATIONAL WEATHER SERVICE GREAT FALLS MT
300 PM MST SUN DEC 17 2017

NOTE: "FAIR" INDICATES FEW OR NO CLOUDS BELOW 12000 FEET WITH NO
SIGNIFICANT WEATHER AND/OR OBSTRUCTIONS TO VISIBILITY.

MTZ001>007-043-172300-
WEST OF THE DIVIDE

CITY           SKY/WX    TMP DP  RH WIND       PRES   REMARKS
KALISPELL      CLOUDY    31  27  85 SE12      29.99F WCI  22
MISSOULA       CLOUDY    25  19  78 CALM      30.06F
BUTTE          CLOUDY    27  15  61 N5        29.99S
MULLAN PASS    LGT SNOW  24  20  84 SW7       29.93F FOG     WCI  16
ANACONDA         N/A     28  16  59 SW12G20   30.00S WCI  18
DEER LODGE       N/A     27  16  63 CALM      30.03F
EUREKA           N/A     34  25  69 MISG      29.96F
HAMILTON         N/A     36  19  51 SE9       30.04F WCI  29
LIBBY            N/A     28  25  86 CALM      29.98F
PLAINS           N/A     31  23  72 CALM      30.05F
RONAN            N/A     30  25  82 CALM      30.05
$$

MTZ008-052>055-172300-
SOUTHWEST MONTANA

CITY           SKY/WX    TMP DP  RH WIND       PRES   REMARKS
BOZEMAN        CLOUDY    21  17  84 NE3       29.99F
DILLON         CLOUDY    29  16  58 SW16      30.01F WCI  17
W YELLOWSTONE  CLOUDY    16  14  93 SW9G18    30.07S WCI   4
ENNIS          CLOUDY    27  16  63 S18G25    30.05F WCI  13
THREE FORKS      N/A     24  22  92 CALM      29.97F
TWIN BRIDGES     N/A     27  11  51 CALM      30.03S
$$

MTZ009-010-012-014-046-048-049-054-172300-
EAST SLOPES AND CENTRAL MONTANA

CITY           SKY/WX    TMP DP  RH WIND       PRES   REMARKS
CUT BANK       FAIR      32  21  64 W38G45    29.71R WCI  16
GREAT FALLS    FAIR      36  18  48 SW20G33   29.79F WCI  25
MALMSTROM AFB  FAIR      37  20  50 SW25G33   29.80S WCI  26
HELENA         FAIR      35  22  58 W15G21    29.94F WCI  25
BOWMANS CRNR   FAIR      32  19  58 SW20      29.79R WCI  20
CHOTEAU          N/A     43  18  36 VRB5G13   29.76R
FAIRFIELD      FAIR      39  18  42 SW28      29.75R WCI  28
POWER          FAIR      36  22  56 SW14      29.76R WCI  27
RAYNESFORD     PTSUNNY   37  21  53 SW21G28   29.78S WCI  26
ULM            PTSUNNY   37  20  49 SW21      29.82R WCI  27
$$

MTZ011-013-016-021-045-047-050-051-172300-
NORTH CENTRAL MONTANA

CITY           SKY/WX    TMP DP  RH WIND       PRES   REMARKS
HAVRE          CLOUDY    40  25  55 SW22      29.72F
LEWISTOWN      FAIR      35  22  58 W21       29.77R WCI  24
N BAR RANCH    FAIR      37  18  44 W14       29.77R WCI  29
CHINOOK          N/A     43  23  45 W13G18    29.71S
DENTON         PTSUNNY   40  20  45 W23       29.73R
GEYSER         PTSUNNY   37  22  55 W21G30    29.75S WCI  26
GRASS RANGE    FAIR      38  21  49 W18G24    29.73R WCI  29
STANFORD       FAIR      35  25  65 W3        29.77R
WINIFRED       FAIR      39  20  47 W20G26    29.74R WCI  29
$$

MTZ017>020-022>027-061-062-172300-
NORTHEAST MONTANA

CITY           SKY/WX    TMP DP  RH WIND       PRES   REMARKS
GLASGOW        CLOUDY    38  23  55 W16       29.70R WCI  29
GLENDIVE       CLOUDY    37  18  46 SW21      29.74F WCI  26
JORDAN           N/A     42  17  36 W20       29.73S
SIDNEY         FAIR      38  20  48 SW20      29.72F WCI  28
WOLF POINT     CLOUDY    38  21  50 SW10      29.71F WCI  31
MALTA          CLOUDY    39  25  56 W13       29.70F WCI  32
PLENTYWOOD       N/A     32  21  64 SW12      29.66F WCI  23
POPLAR           N/A     36  19  51 SW12      29.71F WCI  27
SCOBEY           N/A     34  18  52 MISG      29.66F
$$

MTZ028>42-056>058-172300-
SOUTHCENTRAL AND SOUTHEAST MONTANA

CITY           SKY/WX    TMP DP  RH WIND       PRES   REMARKS
BAKER          FAIR      38  25  59 W15       29.77F WCI  29
BILLINGS       PTSUNNY   32  24  72 SW15      29.84R WCI  22
LIVINGSTON     FAIR      31  21  66 W37G49    29.90R HAZE    WCI  15
MILES CITY     CLOUDY    38  20  48 W16       29.79S WCI  29
BIG TIMBER     HAZE      32  21  64 W41G58    29.84F VSB 3/4 WCI  16
EKALAKA          N/A     36  18  48 W12       29.77F WCI  28
FORSYTH          N/A     37  19  48 SW12G18   29.79S WCI  30
HARLOWTON      PTSUNNY   30  19  65 NW36      29.83R WCI  13
LAUREL           N/A     32  27  80 SW9       29.87R WCI  24
ROUNDUP          N/A     36  14  40 SW23      29.72S WCI  24
$$

REGIONAL REPORTS...DAKOTAS

CITY           SKY/WX    TMP DP  RH WIND       PRES   REMARKS
WILLISTON      FAIR      37  20  50 SW10      29.70F WCI  30
MINOT          FAIR      39  24  55 S16       29.71F WCI  30
DICKINSON      FAIR      40  24  53 SW20      29.73F
BEACH          FAIR      37  23  56 W20G29    29.77F WCI  27
CROSBY         FAIR      34  23  64 SW16      29.66F WCI  23
TIOGA          FAIR      34  23  64 SW16      29.69F WCI  23
BISMARCK       FAIR      41  22  46 SW9       29.82F
GRAND FORKS    FAIR      24  19  81 S14       29.86F WCI  12
FARGO          FAIR      31  27  85 S6        29.90F WCI  25
BUFFALO SD       N/A     41  25  53 W16       29.73F
RAPID CITY     FAIR      43  24  47 S5        29.79F
$$

REGIONAL REPORTS...WYOMING/IDAHO/WASHINGTON

CITY           SKY/WX    TMP DP  RH WIND       PRES   REMARKS
GILLETTE       FAIR      30  22  72 W8        29.81R WCI  22
SHERIDAN         N/A     20  19  96 S3        29.83F
BUFFALO WY     FAIR      32  18  56 CALM      29.81S
CODY           FAIR      33  16  49 W7        29.84F WCI  27
YELLOWSTONE LA   N/A     14  10  84 VRB3      30.04S
IDAHO FALLS    CLOUDY    22  20  92 SW8       30.19S WCI  12
SALMON         CLOUDY    22  12  65 CALM      30.17F
BOISE          CLOUDY    37  21  52 N7        30.23S WCI  32
SPOKANE        LGT SNOW  32  31  96 S8        30.04F FOG     WCI  25
$$

REGIONAL REPORTS...ALBERTA

CITY           SKY/WX    TMP DP  RH WIND       PRES   REMARKS
EDMONTON       CLEAR     41  19  42 W16G29    29.48R
CALGARY        MOCLDY    43  12  28 W20G26    29.56F
LETHBRIDGE     MOCLDY    37  21  52 SW21G31   29.68R WCI  27
MEDICINE HAT   CLOUDY    39  25  56 SW15      29.63R WCI  31
$$

REGIONAL REPORTS...SASKATCHEWAN

CITY           SKY/WX    TMP DP  RH WIND       PRES   REMARKS
SWIFT CURRENT  MOCLDY    34  30  86 SW18      29.57R WCI  23
REGINA         CLOUDY    30  25  80 W13G18    29.57S WCI  20
SASKATOON      MOCLDY    28  23  80 SW16      29.48R WCI  17
$$




USA.gov is the U.S. government's official web portal to all federal, state and local government web resources and services.